Location: *
(46.3500°N, 10.9000°E)
Time: 23:51:20
(UTC+00:00)

Vanguard 2 - Pass Details

Date: 27 April 2021
Orbit: 552 x 2938 km, 32.9° (Epoch: 12 May)

Event Time Altitude Azimuth Distance (km) Brightness Sun altitude
Rises 07:48:41 0° 208° (SSW) 6,388 12.1 36.4°
Reaches altitude 10° 07:53:38 10° 198° (SSW) 5,581 12.0 37.2°
Maximum altitude 08:07:08 29° 148° (SSE) 4,363 12.6 39.3°
Drops below altitude 10° 08:20:02 10° 97° (E) 5,356 12.8 41.3°
Sets 08:24:35 0° 87° (E) 6,104 12.8 42.0°
